Location: Sungai Igah
(2.7333°N, 114.2500°E)
Time: 16:16:27
(UTC+00:00)

ATLAS 2AS CENTAUR R/B - Pass Details

Date: 29 October 2021
Orbit: 958 x 1254 km, 63.7° (Epoch: 28 November)

Event Time Altitude Azimuth Distance (km) Brightness Sun altitude
Rises 13:53:53 0° 227° (SW) 4,082 6.2 -55.4°
Reaches altitude 10° 13:57:00 10° 237° (WSW) 3,153 5.5 -56.2°
Enters shadow 13:57:13 11° 238° (WSW) 3,095 5.5 -56.2°
